Change the Weather History Date:

Thursday, January 3, 2013

  Actual Average Record
Temperature  
Mean Temperature 24 °F -  
Max Temperature 28 °F 49 °F 69 °F (2006)
Min Temperature 21 °F 30 °F 18 °F (1999)
Degree Days  
Heating Degree Days 40    
Moisture  
Dew Point 20 °F    
Average Humidity 85    
Maximum Humidity 93    
Minimum Humidity 61    
Precipitation  
Precipitation 0.01 in - - ()
Sea Level Pressure  
Sea Level Pressure 30.23 in    
Wind  
Wind Speed 37 mph (NE)    
Max Wind Speed 46 mph    
Max Gust Speed 48 mph    
Visibility 3 miles    
Events Fog , Rain , Snow    
Averages and records for this station are not official NWS values.
T = Trace of Precipitation, MM = Missing Value Source: NWS Daily Summary

Daily Weather History Graph

Daily Weather History Graph

Search for Another Location

Airport or City:

Trip Planner

Search our weather history database for the weather conditions in past years. The results will help you decide how hot, cold, wet, or windy it might be!

Date:

Astronomy

Jan. 03, 2013 Rise Set
Actual Time 6:59 AM MST 5:08 PM MST
Civil Twilight 6:33 AM MST 5:34 PM MST
Nautical Twilight 6:02 AM MST 6:05 PM MST
Astronomical Twilight 5:33 AM MST 6:34 PM MST
Moon 11:20 PM MST (1/3) 10:36 AM MST (1/3)
Length of Visible Light 11h 01m
Length of Day
10h 08m
Waning Gibbous, 65% of the Moon is Illuminated
Jan 3
Waning Gibbous
Jan 4
Last Quarter
Jan 11
New
Jan 18
First Quarter
Jan 26
Full

Hourly Weather History & Observations

Time (MST) Temp. Windchill Dew Point Humidity Pressure Visibility Wind Dir Wind Speed Gust Speed Precip Events Conditions
12:51 AM 28.9 °F 13.5 °F 19.0 °F 67% 30.17 in 9.0 mi ENE 29.9 mph - N/A   Clear
1:51 AM 28.0 °F 10.9 °F 16.0 °F 61% 30.16 in 9.0 mi NE 36.8 mph - N/A   Overcast
2:51 AM 28.0 °F 10.9 °F 18.0 °F 66% 30.18 in 9.0 mi NE 36.8 mph - N/A   Mostly Cloudy
3:31 AM 27.0 °F 9.2 °F 19.0 °F 72% 30.15 in 9.0 mi NE 38.0 mph - N/A   Mostly Cloudy
3:47 AM 26.6 °F 8.3 °F 19.4 °F 74% 30.15 in 9.0 mi NE 40.3 mph - N/A   Overcast
3:51 AM 27.0 °F 9.2 °F 19.0 °F 72% 30.19 in 8.0 mi NE 38.0 mph - N/A   Overcast
4:51 AM 26.1 °F 7.3 °F 19.0 °F 75% 30.19 in 9.0 mi NE 41.4 mph - N/A   Overcast
5:00 AM 26.1 °F 8.4 °F 19.0 °F 75% 30.17 in 9.0 mi NE 35.7 mph - N/A   Overcast
5:34 AM 26.1 °F 7.9 °F 19.0 °F 75% 30.16 in 8.0 mi NE 38.0 mph - N/A   Mostly Cloudy
5:51 AM 26.1 °F 7.9 °F 19.0 °F 75% 30.22 in 8.0 mi NE 38.0 mph 46.0 mph N/A   Mostly Cloudy
6:02 AM 26.1 °F 7.3 °F 19.0 °F 75% 30.17 in 8.0 mi NE 41.4 mph - N/A   Mostly Cloudy
6:11 AM 26.1 °F 7.7 °F 19.0 °F 75% 30.18 in 8.0 mi NE 39.1 mph - N/A   Scattered Clouds
6:33 AM 27.0 °F 9.4 °F 19.9 °F 75% 30.19 in 8.0 mi NE 36.8 mph - N/A   Mostly Cloudy
6:41 AM 27.0 °F 9.8 °F 19.9 °F 75% 30.19 in 8.0 mi NE 34.5 mph 44.9 mph N/A   Mostly Cloudy
6:51 AM 27.0 °F 9.2 °F 21.0 °F 78% 30.24 in 8.0 mi NE 38.0 mph - N/A   Mostly Cloudy
7:51 AM 27.0 °F 9.2 °F 21.0 °F 78% 30.26 in 6.0 mi NE 38.0 mph - 0.00 in   Overcast
8:04 AM 27.0 °F 9.6 °F 21.0 °F 78% 30.21 in 3.0 mi NE 35.7 mph 44.9 mph 0.00 in Snow Light Snow
8:07 AM 26.1 °F 7.9 °F 21.0 °F 81% 30.21 in 2.0 mi NE 38.0 mph - 0.00 in Snow Light Snow
8:14 AM 26.1 °F 8.1 °F 21.0 °F 81% 30.22 in 0.8 mi NE 36.8 mph - 0.00 in Snow Light Snow
8:29 AM 25.0 °F 7.6 °F 21.9 °F 88% 30.25 in 0.5 mi NE 32.2 mph - 0.00 in Fog , Snow Snow
8:42 AM 24.1 °F 5.9 °F 21.9 °F 91% 30.25 in 0.2 mi NE 34.5 mph - 0.00 in Fog , Snow Heavy Snow
8:51 AM 24.1 °F 5.9 °F 21.9 °F 91% 30.31 in 0.2 mi NE 34.5 mph 42.6 mph 0.00 in Fog , Snow Heavy Snow
9:07 AM 24.1 °F 5.0 °F 21.9 °F 91% 30.22 in 0.2 mi NE 39.1 mph - 0.00 in Fog , Snow Heavy Snow
9:51 AM 24.1 °F 5.2 °F 21.9 °F 91% 30.32 in 0.2 mi NE 38.0 mph - 0.01 in Fog , Snow Heavy Snow
10:05 AM 24.1 °F 5.2 °F 21.9 °F 91% 30.24 in 0.5 mi NE 38.0 mph - 0.00 in Fog , Snow Snow
10:18 AM 24.1 °F 4.1 °F 21.9 °F 91% 30.21 in 1.0 mi NE 43.7 mph - 0.00 in Snow Light Snow
10:51 AM 24.1 °F 4.5 °F 21.9 °F 91% 30.30 in 1.8 mi NE 41.4 mph 48.3 mph 0.00 in Snow Light Snow
11:05 AM 24.1 °F 3.7 °F 21.9 °F 91% 30.21 in 0.2 mi NE 46.0 mph - 0.00 in Fog , Snow Light Freezing Fog
11:51 AM 24.1 °F 4.7 °F 21.9 °F 91% 30.27 in 0.2 mi NE 40.3 mph - N/A Fog , Rain Light Freezing Rain
12:19 PM 24.1 °F 4.7 °F 21.9 °F 91% 30.18 in 0.5 mi NE 40.3 mph - N/A Fog , Snow Light Freezing Fog
12:48 PM 24.8 °F 5.7 °F 21.2 °F 86% 30.17 in 1.0 mi NE 40.3 mph - N/A Snow Blowing Snow
12:51 PM 24.1 °F 4.5 °F 21.9 °F 91% 30.24 in 0.8 mi NE 41.4 mph - N/A Snow Blowing Snow
1:25 PM 23.0 °F 3.2 °F 21.0 °F 92% 30.15 in 0.2 mi NE 40.3 mph - 0.00 in Fog , Snow Heavy Snow
1:40 PM 24.1 °F 4.5 °F 21.0 °F 88% 30.16 in 0.2 mi NE 41.4 mph - 0.00 in Fog , Snow Heavy Snow
2:06 PM 24.1 °F 4.3 °F 21.0 °F 88% 30.16 in 1.0 mi NE 42.6 mph - 0.00 in Snow Light Snow
2:51 PM 23.0 °F 3.2 °F 21.0 °F 92% 30.26 in 1.2 mi NE 40.3 mph - 0.00 in Snow Blowing Snow
3:14 PM 23.0 °F 3.0 °F 21.0 °F 92% 30.18 in 0.2 mi NE 41.4 mph 46.0 mph N/A Fog , Snow Light Freezing Fog
3:31 PM 23.0 °F 4.4 °F 21.0 °F 92% 30.20 in 0.2 mi ENE 34.5 mph - 0.00 in Fog , Rain Light Freezing Rain
3:51 PM 23.0 °F 3.7 °F 21.0 °F 92% 30.29 in 0.2 mi NE 38.0 mph - N/A Fog , Rain Light Freezing Rain
4:51 PM 21.9 °F 2.4 °F 19.9 °F 92% 30.29 in 0.2 mi NE 36.8 mph - N/A Fog , Rain Light Freezing Rain
5:10 PM 21.9 °F 2.9 °F 19.9 °F 92% 30.21 in 0.8 mi NE 34.5 mph - N/A Rain Light Freezing Rain
5:25 PM 21.9 °F 1.9 °F 19.9 °F 92% 30.17 in 1.0 mi NE 39.1 mph - N/A Snow Blowing Snow
5:51 PM 21.9 °F 2.6 °F 19.9 °F 92% 30.30 in 1.0 mi NE 35.7 mph - N/A Snow Blowing Snow
6:25 PM 21.9 °F 2.2 °F 19.9 °F 92% 30.18 in 0.8 mi NE 38.0 mph - N/A Snow Blowing Snow
6:51 PM 21.9 °F 2.2 °F 19.9 °F 92% 30.31 in 1.0 mi NE 38.0 mph - N/A Snow Blowing Snow
7:51 PM 21.9 °F 2.4 °F 19.9 °F 92% 30.31 in 1.2 mi NE 36.8 mph - N/A Snow Blowing Snow
8:35 PM 21.9 °F 2.4 °F 19.9 °F 92% 30.22 in 1.0 mi NE 36.8 mph - N/A Snow Blowing Snow
8:51 PM 21.9 °F 2.2 °F 19.9 °F 92% 30.33 in 1.2 mi NE 38.0 mph - N/A Snow Blowing Snow
9:11 PM 21.9 °F 2.6 °F 19.9 °F 92% 30.22 in 1.0 mi NE 35.7 mph - 0.00 in Snow Light Snow
9:25 PM 21.9 °F 2.4 °F 19.9 °F 92% 30.21 in 1.2 mi NE 36.8 mph - 0.00 in Snow Light Snow
9:32 PM 23.0 °F 4.1 °F 19.9 °F 88% 30.22 in 1.2 mi NE 35.7 mph - 0.00 in Snow Light Snow
9:51 PM 23.0 °F 4.4 °F 19.9 °F 88% 30.35 in 1.0 mi NE 34.5 mph - 0.00 in Snow Blowing Snow
10:08 PM 23.0 °F 4.6 °F 19.9 °F 88% 30.25 in 1.0 mi NE 33.4 mph - N/A Snow Blowing Snow
10:19 PM 21.9 °F 3.4 °F 19.9 °F 92% 30.24 in 1.2 mi NE 32.2 mph - 0.00 in Snow Light Snow
10:35 PM 21.9 °F 3.1 °F 19.0 °F 89% 30.24 in 1.2 mi NE 33.4 mph - 0.00 in Snow Blowing Snow
10:51 PM 21.9 °F 3.1 °F 19.0 °F 89% 30.36 in 1.5 mi NE 33.4 mph - 0.00 in Snow Light Snow
11:15 PM 21.9 °F 3.4 °F 19.0 °F 89% 30.25 in 1.2 mi NE 32.2 mph - 0.00 in Snow Light Snow
11:24 PM 21.9 °F 3.4 °F 19.0 °F 89% 30.24 in 1.5 mi NE 32.2 mph - 0.00 in Snow Light Snow
11:33 PM 21.9 °F 3.7 °F 19.0 °F 89% 30.24 in 2.0 mi NE 31.1 mph - 0.00 in Snow Light Snow
11:47 PM 21.2 °F 2.4 °F 19.4 °F 93% 30.25 in 2.0 mi NE 32.2 mph - 0.00 in Snow Light Snow
11:51 PM 21.9 °F 3.7 °F 19.0 °F 89% 30.36 in 1.8 mi NE 31.1 mph - 0.00 in Snow Light Snow